EDT,Max TemperatureF,Mean TemperatureF,Min TemperatureF,Max Dew PointF,MeanDew PointF,Min DewpointF,Max Humidity, Mean Humidity, Min Humidity, Max Sea Level PressureIn, Mean Sea Level PressureIn, Min Sea Level PressureIn, Max VisibilityMiles, Mean VisibilityMiles, Min VisibilityMiles, Max Wind SpeedMPH, Mean Wind SpeedMPH, Max Gust SpeedMPH,PrecipitationIn, CloudCover, Events, WindDirDegrees
2013-8-1,86,78,71,72,69,66,89,77,58,30.03,29.95,29.89,10,10,10,10,5,,0.00,6,Thunderstorm,232
2013-8-2,87,80,73,72,70,66,94,76,52,30.04,29.99,29.94,10,10,3,7,2,,0.00,4,,13
2013-8-3,89,81,73,73,71,68,94,73,49,30.05,30.00,29.93,10,10,9,13,5,17,0.00,4,,244
2013-8-4,84,76,68,70,66,61,88,69,48,30.04,29.97,29.92,10,10,7,14,4,20,0.00,2,,14
2013-8-5,84,74,64,64,62,57,94,71,42,30.10,30.05,30.01,10,9,2,12,1,,0.00,3,,156
2013-8-6,80,74,68,64,62,59,83,67,51,30.09,30.06,30.01,10,10,8,13,5,20,0.00,4,,207
2013-8-7,87,78,69,68,65,63,88,68,46,30.12,30.08,30.04,10,10,8,10,3,,0.00,4,,175
2013-8-8,89,78,68,70,67,66,94,68,46,30.09,30.06,30.01,10,10,7,9,2,,0.00,2,,227
2013-8-9,93,83,73,73,71,70,94,70,46,30.10,30.06,30.01,10,10,10,15,9,22,0.00,2,,232
2013-8-10,96,84,73,73,71,66,89,72,44,30.12,30.09,30.02,10,10,10,14,7,18,0.04,2,Thunderstorm,247
2013-8-11,93,81,69,73,71,68,94,71,46,30.14,30.09,30.03,10,10,7,9,2,,0.00,1,,276
2013-8-12,93,83,73,73,70,66,89,68,41,30.07,30.02,29.96,10,10,10,7,3,,0.00,1,Thunderstorm,297
2013-8-13,93,82,71,73,71,68,94,76,49,29.99,29.88,29.80,10,10,5,15,5,29,0.35,3,Thunderstorm,250
2013-8-14,78,72,64,72,65,61,94,80,65,30.10,29.97,29.85,10,10,7,9,2,16,0.00,5,,54
2013-8-15,77,70,62,61,56,54,88,68,47,30.17,30.12,30.08,10,10,8,12,5,17,0.00,1,,58
2013-8-16,68,64,60,63,59,55,94,83,64,30.17,30.14,30.09,10,10,7,8,3,,0.07,4,,47
2013-8-17,71,66,62,68,64,59,94,90,83,30.17,30.14,30.11,10,7,2,8,3,,0.40,8,,37
2013-8-18,84,75,66,70,67,64,94,80,62,30.22,30.17,30.14,10,9,0,8,2,,0.00,6,,270
2013-8-19,73,70,66,70,66,64,94,87,78,30.19,30.16,30.11,10,9,3,8,3,,0.67,8,,75
2013-8-20,80,74,68,72,68,64,94,83,70,30.21,30.16,30.12,10,10,6,6,0,,0.00,6,,70
2013-8-21,87,78,69,72,70,66,94,85,55,30.25,30.19,30.13,10,7,0,8,1,,0.49,5,Thunderstorm,224
2013-8-22,89,79,69,72,69,66,94,75,46,30.16,30.10,30.02,10,10,2,12,2,,0.00,2,,275
2013-8-23,87,78,69,70,68,64,88,72,49,30.07,30.01,29.95,10,10,2,8,3,18,0.00,1,,321
2013-8-24,82,73,64,66,59,54,83,65,39,30.30,30.20,30.08,10,10,10,14,7,21,0.00,4,,48
2013-8-25,78,68,57,63,56,52,94,67,39,30.39,30.33,30.30,10,10,6,14,3,21,0.00,0,,60
2013-8-26,82,66,51,57,53,48,94,66,30,30.33,30.25,30.14,10,10,3,7,1,,0.00,0,,349
2013-8-27,87,74,60,70,61,50,82,64,46,30.15,30.05,29.99,10,10,10,7,3,,0.00,0,,274
2013-8-28,87,78,68,72,69,64,88,73,49,30.01,29.97,29.93,10,9,3,8,3,,0.00,0,,247
2013-8-29,87,81,75,72,70,68,83,69,52,30.02,29.93,29.88,10,10,8,12,6,17,0.00,4,,7
2013-8-30,87,76,66,68,63,59,94,69,40,30.08,30.02,29.96,10,9,2,9,4,,0.00,2,,86
2013-8-31,89,78,68,70,67,64,94,70,46,30.00,29.95,29.90,10,9,0,12,5,,0.00,3,,216